Regional Weather Roundup
Issued by NWS Grand Forks, ND

Home | Current Version | Previous Version | Text Only | Print | Product List | Glossary On
Versions: 1 2 3 4 5 6 7 8 9 10 11 12 13 14 15 16 17 18 19 20 21 22 23 24 25 26 27 28 29 30 31 32 33 34 35 36 37 38 39 40 41 42 43 44 45 46 47 48 49 50
000
ASUS43 KFGF 070831
RWRFGF
PRAIRIE TO PINES  WEATHER ROUNDUP
NATIONAL WEATHER SERVICE EASTERN NORTH DAKOTA/GRAND FORKS ND
200 AM CST SUN FEB 07 2016

 **SATELLITE DATA USED TO AUGMENT SKY COVER AT AUTOMATED STATIONS**
 *****  WEATHER ACROSS EASTERN NORTH DAKOTA  *****

CITY           SKY/WX    TMP DP  RH WIND       PRES   REMARKS
GRAND FORKS    MIX PCPN  36  32  85 W21       29.47R
GRAND FRKS AFB LGT RAIN  34  32  93 W20G26    29.47R WCI  22
GRAND FRKS NWS   N/A     34 N/A N/A NW22        N/A  WCI  22
DEVILS LAKE    CLOUDY    35  28  75 W30G36    29.53R WCI  22
FARGO          LGT RAIN  37  31  78 W23       29.55S
WAHPETON ARPT  CLOUDY    36  30  80 W18       29.61S
$$

 ***** WEATHER ACROSS CENTRAL AND WESTERN NORTH DAKOTA  *****

CITY           SKY/WX    TMP DP  RH WIND       PRES   REMARKS
BISMARCK       CLEAR     39  23  52 W25G37    29.79S
MINOT          MOCLDY    38  21  50 W25G36    29.67S
JAMESTOWN      MOCLDY    36  25  64 W24G37    29.62R
MINOT AFB      PTCLDY    37  23  58 W23G29    29.65R
GARRISON         N/A     35  24  64 W24       29.74R WCI  23
WILLISTON      CLEAR     36  23  59 W26G33    29.83R
DICKINSON      PTCLDY    33  23  66 W24G35    29.86R WCI  20
HETTINGER      CLOUDY    34  25  69 W30G40    29.93R WCI  20
$$

 *****  OTHER AIRPORT OBSERVATIONS IN OUR AREA  *****

CITY           SKY/WX    TMP DP  RH WIND       PRES   REMARKS
WALHALLA       LGT RAIN  36  36 100 NW18G26   29.45R
GRAFTON AIRPOR CLOUDY    37  34  87 W22G29    29.46R
VALLEY CITY AR FLURRIES  36  28  75 W26G36    29.60R
CANDO          CLOUDY    34  28  80 NW26      29.55R WCI  21
CAVALIER APRT  MIX PCPN  36  32  87 NW20G25   29.44R
GWINNER        CLOUDY    39  30  70 W28G35    29.64R
SHEYENNE NWR     N/A     38  29  71 W16       29.95S
ROLLA          PTSUNNY   34  25  69 NW26G40   29.51R WCI  21
 ***** THE ABOVE OBSERVATIONS ARE NON NWS ARE NOT QUALITY
       CONTROLLED AND MAY MIS-REPORT RAIN FOR SNOW...
$$

  *****  WEATHER ACROSS NORTHERN MINNESOTA  *****

CITY           SKY/WX    TMP DP  RH WIND       PRES   REMARKS
FLAG ISLAND    CLOUDY    30  28  93 SE6       29.35F WCI  24
WARROAD        CLOUDY    36  32  87 SW7       29.37S
ROSEAU         CLOUDY    37  32  81 SW10      29.37F
HALLOCK        CLOUDY    37  34  87 NW13      29.41S
THF RVR FALLS  CLOUDY    36  30  80 W16       29.43F
BAUDETTE       CLOUDY    36  30  79 SW6       29.37F
WASKISH        CLOUDY    37  32  81 SW16      29.41S
CROOKSTON      MIX PCPN  34  34 100 W21       29.47S WCI  22
STEPHEN NDAWN    N/A     36  34  93 W13         N/A
GREENBUSH NDAW   N/A     36  32  87 W14         N/A
$$
  *****  WEATHER ACROSS CENTRAL AND WEST MINNESOTA  *****

CITY           SKY/WX    TMP DP  RH WIND       PRES   REMARKS
FOSSTON        LGT RAIN  34  32  93 W13       29.46F WCI  25
BEMIDJI        LGT RAIN  35  32  88 SW12      29.44S
PARK RAPIDS    FLURRIES  35  32  88 W14       29.48S
ELBOW LAKE     CLOUDY    36  32  85 NW22G35   29.62S HAZE
WADENA         DRIZZLE   34  30  86 W14G22    29.53S WCI  24
DETROIT LAKES  LGT SNOW  34  32  93 W15G22    29.53S WCI  24
MOORHEAD       DRIZZLE   36  32  87 W25       29.56R
FERGUS FALLS   DRIZZLE   36  34  93 W24G31    29.61S
MORRIS MN      CLOUDY    37  32  81 W16       29.64S
STAPLES        CLOUDY    36  30  80 W14       29.54S
$$
  *****  WEATHER ELSEWHERE ACROSS MINNESOTA  *****

CITY           SKY/WX    TMP DP  RH WIND       PRES   REMARKS
DULUTH         CLOUDY    32  29  88 SW17G24   29.55F WCI  21
INTRNTL FALLS  CLOUDY    33  31  92 S6        29.41F
ELY            CLOUDY    30  30 100 S6        29.48F WCI  24
CLOQUET        CLOUDY    34  28  80 S12G18    29.54F
WHEATON        CLOUDY    41  34  75 W20G30    29.66R
BRAINERD       CLEAR     32  28  85 SW9       29.54F WCI  24
HIBBING        CLOUDY    32  31  96 S6        29.49F
ALEXANDRIA     FLURRIES  35  31  85 W25G32    29.60F WCI  23
SAINT CLOUD    PTCLDY    33  30  88 S8        29.61F
MINNEAPOLIS    MOCLDY    33  27  78 S5        29.67F
$$

  *****  WEATHER ACROSS SOUTH DAKOTA  *****

CITY           SKY/WX    TMP DP  RH WIND       PRES   REMARKS
SIOUX FALLS    CLEAR     37  27  67 W18       29.81S
BROOKINGS      PTCLDY    36  28  73 W20G28    29.75S
WATERTOWN      CLEAR     36  26  67 W22       29.72S
HURON          CLEAR     36  28  73 W20       29.84R
SISSETON         N/A     39  29  67 NW25G35   29.64S
ABERDEEN       CLEAR     40  25  55 W22G32    29.74S
MITCHELL       CLEAR     37  29  72 W18       29.88R
PIERRE         MOCLDY    36  25  64 W16       29.93R
MOBRIDGE       CLEAR     38  24  57 NW20      29.82R
RAPID CITY     MOCLDY    36  18  48 NW25G37   30.03F
$$

  *****  SOME WEATHER IN NEARBY STATES *****

CITY           SKY/WX    TMP DP  RH WIND       PRES   REMARKS
GLASGOW MT     CLEAR     32  22  66 W21       30.00R WCI  20
GREAT FALLS MT CLEAR     28  15  58 W13       30.26R WCI  17
CHEYENNE WY    PTCLDY    36  15  42 W25G32    30.09S
SCOTTSBLUFF NE CLEAR     29  20  69 NW10      30.14S WCI  20
OMAHA NE       CLOUDY    36  27  69 S3        29.92F
DES MOINES IA  CLOUDY    38  27  64 SW10      29.89F
DAVENPORT IA   PTCLDY    39  29  67 S16       29.94F
CHICAGO IL     CLOUDY    36  29  75 SW7       30.00F
EAU CLAIRE WI  PTCLDY    32  26  78 SW7       29.71F
LA CROSSE WI   CLOUDY    34  28  79 S14G24    29.75F WCI  25
$$

  *****  SOME NATIONAL WEATHER *****

CITY           SKY/WX    TMP DP  RH WIND       PRES   REMARKS
LA GUARDIA NY  PTCLDY    35  23  61 S6        30.23S
RALEIGH NC     CLOUDY    39  24  55 NE3       30.18F
ATLANTA GA     CLEAR     32  21  64 NW5       30.14F
NEW ORLEANS LA CLEAR     41  32  70 CALM      30.28R
OKLAHOMA CITY  CLEAR     36  27  69 SW10      30.19F
ALBUQUERQUE NM CLEAR     37  14  38 N13       30.37F
SALT LAKE CITY MOCLDY    28  21  75 SE3       30.50S
LOS ANGELES CA CLEAR     59  29  31 N3        30.16S
BOISE ID       CLEAR     29  27  92 CALM      30.47R
SEATTLE WA     PTCLDY    41  36  82 E6        30.49S
$$

*** WEATHER ACROSS MANITOBA...SASKATCHEWAN AND ONTARIO ***
                ***ONTARIO***

CITY           SKY/WX    TMP DP  RH WIND       PRES   REMARKS
GERALDTON      LGT SNOW  -2  -8  78 E13       29.83F DRFTSNOWWCI -21
THUNDER BAY    LGT SNOW  32  32 100 SE7       29.61F
SIOUX LOOKOUT  LGT SNOW  16  12  86 SE10G18   29.49F DRFTSNOWWCI   3
TORONTO        CLEAR     28  23  80 SW6       30.09S WCI  22
BIG TROUT LK   CLEAR    -18 -24  76 E8        29.92F WCI -37
PICKLE LAKE    NOT AVBL
DRYDEN         LGT SNOW  23  21  93 E10       29.42F WCI  12
KENORA         LGT SNOW  28  28 100 SE8       29.36F WCI  20
$$
                *** MANITOBA***

CITY           SKY/WX    TMP DP  RH WIND       PRES   REMARKS
BRANDON        CLOUDY    36  28  75 NW26G33   29.47R
DAUPHIN        LGT SNOW  28  27  93 N6        29.45S WCI  22
ISLAND LAKE    FLURRIES   0  -6  78 E7        29.66S WCI -13
PILOT MOUND      N/A     34  30  86 NW20G29     N/A  WCI  22
THE PAS        FLURRIES   9   3  78 N10       29.63R WCI  -6
THOMPSON       LGT SNOW  -8 -13  77 NE8       29.74R DRFTSNOWWCI -23
WINNIPEG         N/A     27  25  93 NW23      29.39R WCI  12
LYNN LAKE      LGT SNOW  -6  -9  84 NE6       29.74R WCI -18
CHURCHILL      MOCLDY   -18 -24  76 SE10      30.12S WCI -39
$$
                ***SASKATCHEWAN***

CITY           SKY/WX    TMP DP  RH WIND       PRES   REMARKS
ESTEVAN        NOT AVBL
KINDERSLEY     PTCLDY    28  19  69 NW30G40   29.98R WCI  13
LLOYDMINSTER   CLOUDY    28  19  69 NW25G36   29.96R WCI  14
PRINCE ALBERT  FLURRIES  19  10  68 N28G41    29.76R WCI   1
REGINA         FLURRIES  32  27  80 NW31G44   29.70R WCI  17
YORKTON        LGT SNOW  34  30  86 W26G35    29.51S WCI  21
N. BATTLEFORD  LGT SNOW  28  28 100 NW22G29   29.92R WCI  15
LA RONGE       LGT SNOW  12   7  79 NW14G22   29.80R VSB 3/4 WCI  -3
SASKATOON      MOCLDY    27  19  74 NW25G41   29.82R WCI  11
SWIFT CURRENT  MOCLDY    30  21  69 NW37G48   29.91R WCI  14
$$
NOTE: THESE ARE AUTOMATED STATIONS WITH LIMITED QUALITY CONTROL
      "FAIR" INDICATES FEW OR NO CLOUDS BELOW 12,000 FEET WITH NO
      SIGNIFICANT WEATHER AND/OR OBSTRUCTIONS TO VISIBILITY.
      SKY/WX - SKY CONDITION AND SIGNIFICANT WEATHER.
      TMP - AIR TEMPERATURE.    DP   - DEWPOINT TEMPERATURE.
      RH  - RELATIVE HUMIDITY.  PRES - PRESSURE.
      HX  - HEAT INDEX.         WCI  - WIND CHILL INDEX.
$



USA.gov is the U.S. government's official web portal to all federal, state and local government web resources and services.